COSMOS 2251 DEB, 34979

Orbit data source: Space-Track

COSMOS 2251 DEB, 34979 is space debris in LEO originally from a launch on Wed, 16 Jun 1993 UTC launched from the Plesetsk Missile And Space Complex (PKMTR). The debris from Iridium 33, an American commercial communications satellite, has been tracked extensively since its accidental collision with the defunct Russian satellite Cosmos 2251 in 2009. This event, occurring at high speed in low Earth orbit (LEO), generated thousands of pieces of space debris, significantly increasing the risk of further collisions. The Iridium 33 debris cloud has impacted space traffic management and orbital debris mitigation strategies, making it a subject of ongoing study in space situational awareness.

Loading next visibility...
Identifier
34979, 1993-036AFJ
Orbit
LEO
Country
Flag of CISCIS
Related business
Manufacturer
Unknown
Mission
Spacecraft
Bus & Motor
Unknown
Mass
Unknown
Launch date (UTC)
1993-06-16 (33 years ago)
Launch vehicle
Unknown
Launch site
Plesetsk Missile And Space Complex (PKMTR)
Object type
Payload
Rocket body
Debris
Shape & HBR
Unknown shape, 0.1 m
Radar Cross Section
Small (<0.1 m²)

Expand to show TLE details & history
Last TLE update: 11 hours ago

TLE from 11 hours ago
0 COSMOS 2251 DEB
1 34979U 93036AFJ 26122.07722863  .00006904  00000-0  85900-3 0  9995
2 34979  74.0403 350.5560 0045382  35.9720 324.4497 14.81964283902970
Epoch: 2026-05-02T01:51Z
TLE epoch observation values (Epoch: 2026-05-02T01:51:12.553Z)
Latitude
-0°
Longitude
102.75339°
Altitude
599.991 km
Speed
7.574 km/s
True Right ascension
23h 22m 13s
True Declination
0° 00' 00"
Sunlit
Object was in daylight at epoch
Visualization orbit readout
Latitude
Unknown
Longitude
Unknown
Altitude
Unknown
Speed
Unknown
Apparent Right ascension
Unknown
Apparent Declination
Unknown
Sunlit
N/A
Visualization observer readout
Local Sidereal Time
20:47:44
Azimuth
Unknown
Elevation
Unknown
Doppler factor
Unknown
Orbital elements
Apogee altitude
652.466 km
Perigee altitude
588.942 km
Semi-major axis
6,998.841 km
Eccentricity
0.00454
Inclination
74.0403°
RAAN
350.556°
Arg. of periapsis
35.972°
True anomaly
324.14594°
Mean anomaly
324.4497°
Eccentric anomaly
324.29796°
Mean motion
3.70684 °/min
Orbital period
97.12 mins
BSTAR
0.000859
Loading maneuver chart data...
Computing Atmospheric mass density...
Loading historical data...
Loading historical data...
Loading historical data...
Loading historical data...
Loading historical data...
Loading historical data...
Loading historical data...

Documentation

Showing up to 5 results
|